Regional Weather Roundup
Issued by NWS

Home | Current Version | Previous Version | Text Only | Print | Product List | Glossary On
Versions: 1 2 3 4 5 6 7 8 9 10 11 12 13 14 15 16 17 18 19 20 21 22 23 24 25 26 27 28 29 30 31 32 33 34 35 36 37 38 39 40 41 42 43 44 45 46 47 48 49 50
000
ASUS45 KPSR 211800
RWRAZ

PRELIMINARY ARIZONA REGIONAL HOURLY WEATHER ROUNDUP
NATIONAL WEATHER SERVICE PHOENIX AZ
1100 AM MST SUN DEC 21 2014

NOTE: FAIR INDICATES FEW OR NO CLOUDS BELOW 12,000 FEET WITH NO
SIGNIFICANT WEATHER AND/OR OBSTRUCTIONS TO VISIBILITY.

AZZ001>003-036-211900-
NORTHWEST ARIZONA

CITY           SKY/WX    TMP DP  RH WIND       PRES   REMARKS
KINGMAN        PTSUNNY   48  37  65 CALM      30.16S
6HR MIN TEMP:  32; 6HR MAX TEMP:  48;

$$

AZZ004>008-015-016-018-211900-
NORTH CENTRAL ARIZONA

CITY           SKY/WX    TMP DP  RH WIND       PRES   REMARKS
GRAND CANYON   SUNNY     42  29  59 VRB5      30.16R
6HR MIN TEMP:  21; 6HR MAX TEMP:  42;

PRESCOTT       MOSUNNY   51  28  41 NW12      30.15R
6HR MIN TEMP:  29; 6HR MAX TEMP:  51;

FLAGSTAFF      NOT AVBL
PAYSON         SUNNY     48  32  53 VRB3      30.14F
PAGE           MOSUNNY   41  30  65 CALM      30.11R
6HR MIN TEMP:  32; 6HR MAX TEMP:  41;

$$

AZZ009>014-017-211900-
NORTHEAST ARIZONA

CITY           SKY/WX    TMP DP  RH WIND       PRES   REMARKS
WINSLOW        NOT AVBL
SAINT JOHNS    MOSUNNY   41  29  62 S3        30.09F
6HR MIN TEMP:  24; 6HR MAX TEMP:  41;

WINDOW ROCK    MOSUNNY   41  27  57 CALM      30.08F
6HR MIN TEMP:  26; 6HR MAX TEMP:  41;

$$

AZZ023-211900-
GREATER PHOENIX AREA

CITY           SKY/WX    TMP DP  RH WIND       PRES   REMARKS
PHOENIX        MOSUNNY   57  41  55 E5        30.12S
6HR MIN TEMP:  47; 6HR MAX TEMP:  57;

GLENDALE       MOSUNNY   55  43  62 CALM      30.14F
LUKE AFB       SUNNY     55  42  61 SE2       30.12S
6HR MIN TEMP:  41; 6HR MAX TEMP:  55;

DEER VALLEY    SUNNY     55  39  54 CALM      30.11F
6HR MIN TEMP:  42; 6HR MAX TEMP:  55;

SCOTTSDALE     SUNNY     56  41  57 S3        30.13S
6HR MIN TEMP:  43; 6HR MAX TEMP:  56;

MESA-FALCON    MOSUNNY   54  39  58 CALM      30.13R
MESA-GATEWAY   MOSUNNY   54  43  66 CALM      30.15F
CHANDLER       MOSUNNY   54  43  66 VRB6      30.15S
$$

AZZ027-028-211900-
SOUTHWEST MARICOPA COUNTY AND PINAL COUNTY

CITY           SKY/WX    TMP DP  RH WIND       PRES   REMARKS
CASA GRANDE    SUNNY     52  41  66 MISG      30.13S
6HR MIN TEMP:  39; 6HR MAX TEMP:  52;

GILA BEND      FAIR      58  41  54 NE1       30.15S
6HR MIN TEMP:  41; 6HR MAX TEMP:  58;

$$

AZZ503-504-507>509-211900-
SOUTHEAST ARIZONA

CITY           SKY/WX    TMP DP  RH WIND       PRES   REMARKS
TUCSON         MOSUNNY   52  37  56 SE3       30.16S
6HR MIN TEMP:  40; 6HR MAX TEMP:  52;

DAVIS-MONTHAN  MOSUNNY   52  36  54 SE6       30.13S
6HR MIN TEMP:  39; 6HR MAX TEMP:  52;

RYAN FIELD       N/A     55  45  67 CALM      30.16R
NOGALES        MOSUNNY   53  29  39 CALM      30.13F
6HR MIN TEMP:  32; 6HR MAX TEMP:  53;

SIERRA VISTA   PTSUNNY   52  26  36 CALM      30.14R
6HR MIN TEMP:  36; 6HR MAX TEMP:  53;

SAFFORD        PTSUNNY   49  36  61 VRB3      30.13F
6HR MIN TEMP:  33; 6HR MAX TEMP:  49;

$$

AZZ020-021-025-026-031-211900-
SOUTHWEST ARIZONA

CITY           SKY/WX    TMP DP  RH WIND       PRES   REMARKS
YUMA           PTSUNNY  N/A N/A N/A N12       30.14F
$$

CAZ031-033-041-043-047-048-061-211900-
SOUTHERN CALIFORNIA

CITY           SKY/WX    TMP DP  RH WIND       PRES   REMARKS
DOWNTOWN L.A.  PTSUNNY   60  47  61 E3        30.15S
6HR MIN TEMP:  50; 6HR MAX TEMP:  60;

L.A. AIRPORT   PTSUNNY   58  49  72 SE3       30.16R HAZE
6HR MIN TEMP:  51; 6HR MAX TEMP:  58;

SAN DIEGO      PTSUNNY   62  50  64 NE5       30.17R
6HR MIN TEMP:  55; 6HR MAX TEMP:  63;

BURBANK        PTSUNNY   58  48  69 CALM      30.15S
6HR MIN TEMP:  48; 6HR MAX TEMP:  58;

ONTARIO        PTSUNNY   56  48  74 CALM      30.15F HAZE
6HR MIN TEMP:  44; 6HR MAX TEMP:  56;

RIVERSIDE      MOSUNNY   55  48  77 N3        30.16S HAZE
6HR MIN TEMP:  43; 6HR MAX TEMP:  55;

PALM SPRINGS   PTSUNNY   62  44  51 CALM      30.15F
6HR MIN TEMP:  47; 6HR MAX TEMP:  62;

EL CENTRO NAS  PTSUNNY   60  47  61 W6        30.15F
6HR MIN TEMP:  43; 6HR MAX TEMP:  60;

IMPERIAL       PTSUNNY   60  46  59 W6        30.14F
6HR MIN TEMP:  44; 6HR MAX TEMP:  60;

BLYTHE         CLOUDY    53  43  68 SW5       30.16S
6HR MIN TEMP:  46; 6HR MAX TEMP:  53;

$$

NVZ020-UTZ003-211900-
SOUTHERN NEVADA-UTAH

CITY           SKY/WX    TMP DP  RH WIND       PRES   REMARKS
LAS VEGAS      NOT AVBL
SALT LAKE CITY LGT RAIN  40  37  89 S16G23    29.99S WCI  31
6HR MIN TEMP:  38; 6HR MAX TEMP:  41; 6HR PCP:  0.35;

$$

NMZ009-TXZ055-211900-
NEW MEXICO-WEST TEXAS

CITY           SKY/WX    TMP DP  RH WIND       PRES   REMARKS
ALBUQUERQUE    PTSUNNY   42  28  57 CALM      30.02F
6HR MIN TEMP:  28; 6HR MAX TEMP:  42;

EL PASO        MOSUNNY   54  29  38 SW14      30.04F
6HR MIN TEMP:  34; 6HR MAX TEMP:  54;

$$


........................KEY........................
SKY/WX - SKY CONDITION/WEATHER
TMP    - TEMPERATURE IN FAHRENHEIT
DP     - DEW POINT IN FAHRENHEIT
RH     - RELATIVE HUMIDITY IN PERCENT
WIND   - DIRECTION AND SPEED IN MILES PER HOUR (MPH)
VRB    - VARIABLE WIND DIRECTION
PRES   - MEAN SEA LEVEL PRESSURE IN INCHES OF MERCURY
         F - FALLING PRESSURE   R - RISING PRESSURE
         S - STEADY PRESSURE
VSB    - VISIBILITY IN MILES
HX     - HEAT INDEX IN FAHRENHEIT
WCI    - WIND CHILL INDEX IN FAHRENHEIT
TC     - TEMPERATURE IN CELSIUS WHICH IS ALSO KNOWN AS
         TEMPERATURE IN CENTIGRADE
AFB    - AIR FORCE BASE
         LUKE AFB IS LUKE AIR FORCE BASE
         DAVIS-MONTHAN IS DAVIS-MONTHAN AIR FORCE BASE
NAS    - NAVAL AIR STATION
         EL CENTRO NAS IS EL CENTRO NAVAL AIR STATION
N/A    - NOT AVAILABLE



USA.gov is the U.S. government's official web portal to all federal, state and local government web resources and services.